EW9856 Weather Reports


time (UTC)temp
F
wind
direction
speed
knots
gust
knots
rain 1hr
in
rain 24hr
in
rain mn
in
humidity
%
barometer
mb
20260506174516 63 240 0.0 5.2 0.00 0.00 0.00 69 1020.7
20260506173004 62 240 1.7 4.3 0.00 0.00 0.00 71 1020.8
20260506171501 61 232 0.9 4.3 0.00 0.00 0.00 71 1020.9
20260506164557 60 255 0.9 5.2 0.00 0.02 0.00 74 1021.0
20260506163052 58 267 0.9 2.6 0.00 0.02 0.00 77 1021.1
20260506161549 57 256 0.0 2.6 0.00 0.02 0.00 77 1021.1
20260506160059 57 256 0.9 3.5 0.00 0.02 0.00 77 1021.1
20260506154546 57 244 0.9 3.5 0.00 0.02 0.00 78 1021.1
20260506153044 56 244 0.0 0.9 0.00 0.02 0.00 80 1021.1
20260506151543 56 244 0.0 0.0 0.00 0.02 0.00 80 1021.1
20260506150040 55 244 0.0 1.7 0.00 0.02 0.00 81 1021.0
20260506144552 55 244 0.0 0.9 0.00 0.02 0.00 82 1021.0
20260506143036 54 244 0.0 0.0 0.00 0.02 0.00 83 1020.9
20260506141533 54 244 0.0 0.0 0.00 0.02 0.00 84 1020.8
20260506140035 53 244 0.0 0.0 0.00 0.02 0.00 85 1020.6
20260506134530 53 244 0.0 0.9 0.00 0.02 0.00 85 1020.5
20260506133031 53 244 0.0 0.9 0.00 0.02 0.00 86 1020.3
20260506131526 53 244 0.0 0.0 0.00 0.02 0.00 86 1020.3
20260506130028 53 244 0.0 0.0 0.00 0.02 0.00 85 1020.0
20260506124523 53 244 0.0 0.0 0.00 0.02 0.00 85 1020.0
20260506123023 53 244 0.0 0.0 0.00 0.02 0.00 85 1019.9
20260506121521 53 244 0.0 0.0 0.00 0.02 0.00 85 1019.8
20260506120021 53 244 0.0 0.0 0.00 0.02 0.00 85 1019.9
20260506114532 53 244 0.0 0.9 0.00 0.04 0.00 86 1019.8
20260506113019 53 244 0.0 0.0 0.00 0.04 0.00 87 1019.6
20260506111517 53 244 0.0 0.0 0.00 0.04 0.00 87 1019.6
20260506110020 53 244 0.0 0.0 0.00 0.04 0.00 87 1019.4
20260506104515 53 244 0.0 0.0 0.00 0.06 0.00 87 1019.4
20260506103014 53 244 0.0 0.0 0.00 0.06 0.00 86 1019.4
20260506101516 53 244 0.0 0.9 0.00 0.06 0.00 86 1019.4
20260506100022 53 244 0.0 0.0 0.00 0.06 0.00 86 1019.3
20260506094512 53 244 0.0 0.9 0.00 0.07 0.00 86 1019.2
20260506093010 53 244 0.0 0.0 0.00 0.07 0.00 85 1019.2
20260506091509 53 244 0.0 0.0 0.00 0.07 0.00 86 1019.2
20260506090008 53 244 0.0 0.0 0.00 0.07 0.00 85 1019.3
20260506084507 53 244 0.0 0.0 0.00 0.10 0.00 85 1019.3
20260506083006 53 244 0.0 0.0 0.00 0.10 0.00 85 1019.4
20260506081506 53 244 0.0 0.0 0.00 0.10 0.00 84 1019.5
20260506073100 53 244 0.0 0.9 0.00 0.11 0.00 83 1019.1
20260506071600 54 244 0.0 2.6 0.00 0.11 0.00 82 1019.0
20260506061552 54 311 0.9 3.5 0.00 0.11 0.11 81 1018.6
20260506044547 55 247 0.0 4.3 0.00 0.11 0.11 79 1018.1
20260506043043 55 229 0.9 6.1 0.00 0.11 0.11 79 1017.8
20260506041542 56 273 3.5 6.1 0.00 0.11 0.11 78 1017.7
20260506040041 56 240 0.0 4.3 0.00 0.11 0.11 79 1017.6
20260506034541 56 309 1.7 5.2 0.00 0.11 0.11 78 1017.4
20260506033038 56 246 1.7 6.1 0.00 0.11 0.11 78 1017.2
20260506031537 56 259 1.7 7.8 0.00 0.11 0.11 77 1017.0
20260506030054 57 265 3.5 8.7 0.00 0.11 0.11 76 1016.7
20260506024542 57 249 2.6 7.8 0.00 0.11 0.11 75 1016.7
20260506023033 57 267 3.5 8.7 0.00 0.11 0.11 75 1016.6
20260506021531 58 278 1.7 7.8 0.00 0.11 0.11 74 1016.4
20260506020032 58 240 2.6 7.0 0.00 0.11 0.11 75 1016.3
20260506014530 58 205 3.5 6.1 0.00 0.11 0.11 74 1016.2
20260506013130 58 241 4.3 7.0 0.00 0.11 0.11 73 1016.2
20260506011536 59 265 2.6 8.7 0.00 0.11 0.11 73 1016.4
20260506010027 59 242 4.3 7.8 0.00 0.11 0.11 72 1016.2
20260506004543 59 225 2.6 8.7 0.00 0.11 0.11 72 1016.1
20260506003033 59 262 2.6 8.7 0.00 0.11 0.11 72 1016.0
20260506001531 60 246 2.6 7.8 0.00 0.11 0.11 72 1015.9
20260506000026 60 229 3.5 8.7 0.00 0.11 0.11 72 1015.8
20260505234522 60 253 3.5 7.8 0.00 0.11 0.11 72 1015.8
20260505233017 60 261 3.5 7.8 0.00 0.11 0.11 72 1016.0
20260505231520 60 257 2.6 6.1 0.00 0.11 0.11 72 1016.0
20260505230014 61 241 1.7 6.1 0.00 0.11 0.11 72 1016.1
20260505224511 61 244 3.5 7.8 0.00 0.11 0.11 71 1016.0
20260505223008 60 234 1.7 9.6 0.00 0.11 0.11 73 1016.0
20260505221506 59 262 1.7 7.0 0.00 0.11 0.11 74 1016.1
20260505220005 59 279 0.9 5.2 0.00 0.11 0.11 76 1016.2
20260505214503 59 252 2.6 7.8 0.00 0.11 0.11 76 1016.3
20260505213002 58 229 2.6 5.2 0.00 0.11 0.11 76 1016.3
20260505211602 58 251 0.9 5.2 0.00 0.11 0.11 77 1016.3
20260505210107 58 261 1.7 6.1 0.00 0.11 0.11 78 1016.3
20260505204557 58 239 1.7 6.1 0.00 0.11 0.11 78 1016.3
20260505203057 57 259 0.0 7.8 0.00 0.11 0.11 79 1016.4
20260505201555 57 257 3.5 6.1 0.00 0.11 0.11 79 1016.4
20260505200054 57 229 2.6 7.8 0.00 0.11 0.11 79 1016.5
20260505194558 57 252 3.5 7.8 0.00 0.11 0.11 78 1016.5
20260505193105 57 259 2.6 7.8 0.00 0.11 0.11 80 1016.4
20260505191553 57 219 3.5 7.0 0.00 0.11 0.11 82 1016.5
20260505190047 56 243 3.5 7.0 0.00 0.11 0.11 83 1016.4
20260505184553 56 239 1.7 6.1 0.00 0.11 0.11 85 1016.3
20260505183045 56 248 3.5 6.1 0.00 0.11 0.11 87 1016.3
20260505181543 55 304 0.9 4.3 0.00 0.11 0.11 88 1016.3
20260505180044 55 252 0.9 7.0 0.00 0.11 0.11 89 1016.3